• In Hungary
  • List of Countries
  • For 7 days
  • Water Temperature
  • Satellite Maps
  • Weather Map
  • News
  • Weather Widgets
  • user-avatar
    Login

    Hourly Weather Lyubakovo

    Today, 21 October, Sunday

    Time Temperature Precipitation Wind Pressure Humidity
    00:00 +4°C° 0 mm 0 mps 760 mmHg 93%
    01:00 +3°C° 0 mm 0 mps 761 mmHg 93%
    02:00 +3°C° 0 mm 0 mps 761 mmHg 94%
    03:00 +3°C° 0 mm 0 mps 761 mmHg 94%
    04:00 +3°C° 0 mm 0 mps 761 mmHg 94%
    05:00 +3°C° 0 mm 0 mps 761 mmHg 94%
    06:00 +3°C° 0 mm 0 mps 761 mmHg 94%
    07:00 +3°C° 0 mm 0 mps 761 mmHg 93%
    08:00 +4°C° 0 mm 0 mps 762 mmHg 92%
    09:00 +6°C° 0 mm 1 mps 762 mmHg 86%
    10:00 +8°C° 0 mm 1 mps 762 mmHg 79%
    11:00 +9°C° 0 mm 1 mps 762 mmHg 72%
    12:00 +10°C° 0 mm 1 mps 762 mmHg 70%
    13:00 +10°C° 0 mm 1 mps 762 mmHg 68%
    14:00 +10°C° 0 mm 1 mps 762 mmHg 66%
    15:00 +9°C° 0 mm 1 mps 762 mmHg 71%
    16:00 +8°C° 0 mm 1 mps 762 mmHg 76%
    17:00 +7°C° 0 mm 1 mps 762 mmHg 82%
    18:00 +6°C° 0 mm 1 mps 762 mmHg 84%
    19:00 +6°C° 0 mm 1 mps 762 mmHg 85%
    20:00 +5°C° 0 mm 2 mps 762 mmHg 87%
    21:00 +4°C° 0 mm 2 mps 762 mmHg 87%
    22:00 +4°C° 0 mm 2 mps 762 mmHg 88%
    23:00 +4°C° 0 mm 2 mps 761 mmHg 88%

    Tomorrow, 22 October, Monday

    Time Temperature Precipitation Wind Pressure Humidity
    00:00 +4°C° 0 mm 2 mps 761 mmHg 88%
    01:00 +3°C° 0 mm 3 mps 761 mmHg 87%
    02:00 +3°C° 0 mm 3 mps 761 mmHg 87%
    03:00 +3°C° 0 mm 3 mps 760 mmHg 87%
    04:00 +3°C° 0 mm 3 mps 760 mmHg 87%
    05:00 +3°C° 0 mm 3 mps 759 mmHg 87%
    06:00 +3°C° 0 mm 4 mps 759 mmHg 87%
    07:00 +3°C° 0 mm 4 mps 759 mmHg 87%
    08:00 +4°C° 0 mm 4 mps 758 mmHg 86%
    09:00 +5°C° 0 mm 4 mps 758 mmHg 82%
    10:00 +6°C° 0 mm 5 mps 757 mmHg 78%
    11:00 +7°C° 0 mm 5 mps 757 mmHg 74%
    12:00 +8°C° 0 mm 5 mps 756 mmHg 72%
    13:00 +9°C° 0 mm 5 mps 755 mmHg 70%
    14:00 +9°C° 0 mm 5 mps 755 mmHg 68%
    15:00 +9°C° 0 mm 5 mps 754 mmHg 71%
    16:00 +8°C° 0 mm 4 mps 754 mmHg 74%
    17:00 +8°C° 0 mm 4 mps 753 mmHg 77%
    18:00 +8°C° 0.3 mm 4 mps 753 mmHg 80%
    19:00 +8°C° 0.3 mm 4 mps 753 mmHg 83%
    20:00 +8°C° 0.3 mm 4 mps 752 mmHg 86%
    21:00 +8°C° 0.5 mm 3 mps 752 mmHg 87%
    22:00 +8°C° 0.5 mm 3 mps 752 mmHg 89%
    23:00 +8°C° 0.5 mm 3 mps 752 mmHg 91%

    Day after tomorrow, 23 October, Tuesday

    Time Temperature Precipitation Wind Pressure Humidity
    00:00 +8°C° 0.3 mm 3 mps 751 mmHg 89%
    01:00 +7°C° 0.3 mm 3 mps 751 mmHg 88%
    02:00 +7°C° 0.3 mm 3 mps 751 mmHg 86%
    03:00 +5°C° 0 mm 3 mps 751 mmHg 87%
    04:00 +5°C° 0 mm 2 mps 751 mmHg 87%
    05:00 +4°C° 0 mm 2 mps 750 mmHg 88%
    06:00 +4°C° 0 mm 2 mps 750 mmHg 88%
    07:00 +3°C° 0 mm 2 mps 750 mmHg 88%
    08:00 +3°C° 0 mm 2 mps 750 mmHg 88%
    09:00 +4°C° 0 mm 2 mps 750 mmHg 83%
    10:00 +5°C° 0 mm 2 mps 749 mmHg 77%
    11:00 +7°C° 0 mm 2 mps 749 mmHg 71%
    12:00 +7°C° 0 mm 2 mps 748 mmHg 68%
    13:00 +7°C° 0 mm 3 mps 747 mmHg 65%
    14:00 +8°C° 0 mm 3 mps 746 mmHg 62%
    15:00 +7°C° 0 mm 3 mps 745 mmHg 66%
    16:00 +5°C° 0 mm 3 mps 744 mmHg 70%
    17:00 +4°C° 0 mm 3 mps 743 mmHg 74%
    18:00 +4°C° 0 mm 4 mps 742 mmHg 75%
    19:00 +4°C° 0 mm 4 mps 741 mmHg 75%
    20:00 +3°C° 0 mm 4 mps 740 mmHg 76%
    21:00 +2°C° 0 mm 5 mps 739 mmHg 77%
    22:00 +2°C° 0 mm 5 mps 738 mmHg 78%
    23:00 +2°C° 0 mm 5 mps 736 mmHg 79%

    24 October, Wednesday

    Time Temperature Precipitation Wind Pressure Humidity
    00:00 +2°C° 0.1 mm 5 mps 735 mmHg 79%
    01:00 +2°C° 0.1 mm 5 mps 734 mmHg 79%
    02:00 +2°C° 0.1 mm 6 mps 733 mmHg 80%
    03:00 +2°C° 0.4 mm 6 mps 732 mmHg 80%
    04:00 +2°C° 0.4 mm 5 mps 732 mmHg 80%
    05:00 +2°C° 0.4 mm 5 mps 731 mmHg 80%
    06:00 +2°C° 0.5 mm 5 mps 731 mmHg 81%
    07:00 +3°C° 0.5 mm 5 mps 731 mmHg 81%
    08:00 +3°C° 0.5 mm 5 mps 730 mmHg 81%
    09:00 +3°C° 0.4 mm 5 mps 730 mmHg 81%
    10:00 +4°C° 0.4 mm 4 mps 730 mmHg 80%
    11:00 +5°C° 0.4 mm 4 mps 731 mmHg 80%
    12:00 +5°C° 0.2 mm 4 mps 731 mmHg 80%
    13:00 +5°C° 0.2 mm 4 mps 731 mmHg 81%
    14:00 +5°C° 0.2 mm 3 mps 731 mmHg 81%
    15:00 +5°C° 0.2 mm 3 mps 731 mmHg 83%
    16:00 +5°C° 0.2 mm 2 mps 731 mmHg 85%
    17:00 +5°C° 0.2 mm 2 mps 731 mmHg 86%
    18:00 +5°C° 0.1 mm 2 mps 731 mmHg 87%
    19:00 +5°C° 0.1 mm 2 mps 732 mmHg 88%
    20:00 +5°C° 0.1 mm 2 mps 732 mmHg 89%
    21:00 +4°C° 0.2 mm 2 mps 732 mmHg 90%
    22:00 +4°C° 0.2 mm 2 mps 732 mmHg 90%
    23:00 +4°C° 0.2 mm 2 mps 732 mmHg 91%

    25 October, Thursday

    Time Temperature Precipitation Wind Pressure Humidity
    00:00 +3°C° 0.3 mm 3 mps 732 mmHg 91%
    01:00 +3°C° 0.3 mm 3 mps 732 mmHg 91%
    02:00 +3°C° 0.3 mm 3 mps 732 mmHg 91%
    03:00 +3°C° 0.3 mm 3 mps 732 mmHg 91%
    04:00 +3°C° 0.3 mm 3 mps 732 mmHg 91%
    05:00 +3°C° 0.3 mm 4 mps 733 mmHg 90%
    06:00 +3°C° 0.3 mm 4 mps 733 mmHg 90%
    07:00 +3°C° 0.3 mm 4 mps 733 mmHg 89%
    08:00 +3°C° 0.3 mm 4 mps 733 mmHg 88%
    09:00 +3°C° 0.3 mm 4 mps 734 mmHg 86%
    10:00 +4°C° 0.3 mm 4 mps 734 mmHg 85%
    11:00 +4°C° 0.3 mm 4 mps 734 mmHg 83%
    12:00 +4°C° 0 mm 4 mps 735 mmHg 80%
    13:00 +4°C° 0 mm 4 mps 735 mmHg 77%
    14:00 +5°C° 0 mm 4 mps 736 mmHg 74%
    15:00 +4°C° 0 mm 4 mps 736 mmHg 77%
    16:00 +3°C° 0 mm 3 mps 736 mmHg 80%
    17:00 +4°C° 0 mm 2 mps 737 mmHg 84%
    18:00 +2°C° 0 mm 3 mps 737 mmHg 86%
    19:00 +2°C° 0 mm 3 mps 737 mmHg 88%
    20:00 +2°C° 0 mm 3 mps 738 mmHg 89%
    21:00 +2°C° 0 mm 3 mps 738 mmHg 90%
    22:00 +1°C° 0 mm 3 mps 738 mmHg 91%
    23:00 +1°C° 0 mm 3 mps 739 mmHg 92%

    26 October, Friday

    Time Temperature Precipitation Wind Pressure Humidity
    00:00 +1°C° 0 mm 3 mps 739 mmHg 92%
    01:00 +1°C° 0 mm 3 mps 739 mmHg 93%
    02:00 +1°C° 0 mm 3 mps 739 mmHg 93%
    03:00 +1°C° 0 mm 3 mps 739 mmHg 93%
    04:00 +1°C° 0 mm 3 mps 739 mmHg 94%
    05:00 0°C° 0 mm 3 mps 740 mmHg 94%
    06:00 0°C° 0 mm 3 mps 740 mmHg 93%
    07:00 +1°C° 0 mm 2 mps 740 mmHg 93%
    08:00 +1°C° 0 mm 2 mps 740 mmHg 92%
    09:00 +2°C° 0 mm 2 mps 741 mmHg 88%
    10:00 +3°C° 0 mm 2 mps 741 mmHg 84%
    11:00 +3°C° 0 mm 3 mps 741 mmHg 79%
    12:00 +3°C° 0 mm 3 mps 741 mmHg 77%
    13:00 +4°C° 0 mm 3 mps 741 mmHg 75%
    14:00 +4°C° 0 mm 3 mps 741 mmHg 73%
    15:00 +4°C° 0 mm 2 mps 742 mmHg 77%
    16:00 +3°C° 0 mm 2 mps 742 mmHg 82%
    17:00 +3°C° 0 mm 2 mps 742 mmHg 87%
    18:00 +2°C° 0 mm 2 mps 742 mmHg 88%
    19:00 +2°C° 0 mm 2 mps 742 mmHg 89%
    20:00 +2°C° 0 mm 2 mps 743 mmHg 90%
    21:00 +2°C° 0 mm 2 mps 743 mmHg 91%
    22:00 +1°C° 0 mm 2 mps 743 mmHg 92%
    23:00 +1°C° 0 mm 2 mps 743 mmHg 93%
    Show more